Погода в Екатеринбурге

Погода в Екатеринбурге : погода сейчас, прогноз погоды и архив. Всё, что Вы хотите узнать о погоде в Екатеринбурге!

Хотите узнать прогноз погоды в Екатеринбурге? Тогда Вам сюда: Погода в Екатеринбурге

Поиск расширенной информации на нашем сайте:

Другие новости

Новости СМИ2

Главная страница сайта

Новости сайта

03.07.2017

Напоминаем, что на нашем специализированном сайте Метеоцентр.Азия вы можете получить высокодетализированные автоматические прогнозы погоды по пунктам России, СНГ и мира в авиационном формате (включающие направление и скорость ветра, видимость, явления погоды, количество и форму облачности, нижнюю и верхнюю границу облачности).


Погода в Екатеринбурге - сегодня

Время (UTC), дата Ветер
(°,м/с) 
Видим.   Явления Облачность Т
(°С)
Тd
(°С)
f(%) Тe
(°С)
Pmin
(гПа)
dP
(гПа)
Po
(мм)
O2
(г/м3)
Тmin Tmax R s Состояние
почвы
03 16.06.18 290 (З) 20000 м  {ливн. осадки}  10/10 600 м кучево-дожд. 
[Cb calv]
+6.7 +3.4 79 +6  1009  0.1  731  287  +6    0.8    влажная 
06 16.06.18 320 (СЗ) 20000 м  слаб. ливневой дождь  9/9 600 м кучево-дожд. 
[Cb calv]
+8 +2.6 69 +7  1009.1  0.2  732  286           
09 16.06.18 330 (СЗ) 20000 м  в посл. час ливневой дождь  9/9 600 м кучево-дожд. 
[Cb calv]
+10.7 +1.2 52 +10  1009.1  0.4  732  284           
12 16.06.18 340 (С) 20000 м  {ливн. осадки}  9/8 600 м кучево-дожд., верхняя 
[Cb calv|Cs]
+11.7 +0.5 46 +12  1009.1  0.1  732  283           
18 16.06.18 010 (С) 10 км  {ливн. осадки}  10/10 600 м кучево-дожд. 
[Cb calv]
+9.3 +5.2 76 +10  1009.3  -0.3  732  284           
21 16.06.18 310 (СЗ) 10 км    8/8 600 м кучево-дожд. 
[Cb calv]
+8.7 +4.5 75 +8  1008.5  -0.8  731  285           
00 17.06.18 280 (З) 20000 м  слаб. морось  10/10 300 м 
[St]
+8 +6.5 90 +8  1007.6  -1  731  285           
03 17.06.18 310 (СЗ) 10 км  слаб. ливневой дождь{морось}  10/10 600 м кучево-дожд. 
[Cb calv]
+8.8 +6.9 88 +9  1006.8  -0.7  730  284  +8    0.5    влажная 
06 17.06.18 360 (С) 4000 м  слаб. дождь{ливн. осадки}  10/10 300 м 
[Ns]
+9.6 +7.7 88 +11  1006.8  0.1  730  283           
09 17.06.18 310 (СЗ) 20000 м  {дождь}  8/8 1000 м 
[Cu med, cong]
+15.2 +6.7 57 +16  1006.9  0.8  731  278           
12 17.06.18 330 (СЗ) 20000 м  {дождь}  9/9 600 м 
[Cu Sc]
+16.8 +2.9 39 +18  1006.9  0.1  731  277           
18 17.06.18 310 (СЗ) 10 км    10/6 600 м верхняя 
[Sc|Ci fib]
+13.1 +7 66 +13  1007.5  0.1  731  280           
21 17.06.18 300 (СЗ) 10 км    10/8 600 м средняя 
[Sc|Ac und]
+12.3 +8.6 78 +12  1005.9  -1.7  730  280           
00 18.06.18 290 (З) 20000 м  {ливн. осадки}  10/6 600 м верхняя 
[Sc|Ci fib]
+11 +8.3 83 +10  1004.4  -1.5  728  281           
03 18.06.18 300 (СЗ) 20000 м  в посл. час ливневой дождь  10/9 600 м кучево-дожд., верхняя 
[Cb calv|Ci fib]
+12.9 +9.3 79 +13  1003.4  -0.8  728  278  +10.9    0.0    влажная 
06 18.06.18 310 (СЗ) 20000 м  слаб. ливневой дождь  10/10 600 м кучево-дожд. 
[Cb cap]
+15.2 +11.1 76 +18  1002.6  -0.5  728  276           
18 18.06.18 320 (СЗ) 4000 м  дымка{гроза, ливн. осадки}  8/4 600 м верхняя 
[Sc|Cs]
+13.9 +12.8 93 +21  1004.1  0.3  729  277           
21 18.06.18 320 (СЗ) 4000 м  дымка  10/0 верхняя 
[Cs]
+11.8 +10.6 92 +15  1004.3  -0.2  728  279           
00 19.06.18 320 (СЗ) 10 км    8/6 600 м кучево-дожд., верхняя 
[Cb calv|Cs]
+11.5 +10.1 91 +15  1004.2  -0.1  728  280           
03 19.06.18 320 (СЗ) 10 км  {ливн. осадки}  10/10 600 м кучево-дожд. 
[Cb calv]
+14 +11.8 87 +18  1004.3  0.5  729  277  +10.7    0.0    влажная 
06 19.06.18 330 (СЗ) 20000 м  слаб. ливневой дождь  9/9 600 м кучево-дожд. 
[Cb cap]
+16.2 +10.4 68 +19  1003.9  0.4  729  275           
09 19.06.18 310 (СЗ) 20000 м  {ливн. осадки}  8/8 600 м кучево-дожд. 
[Cb calv]
+20 +9.1 49 +21  1003.1  -0.4  728  272           
18 19.06.18 300 (СЗ) 10 км  {гроза, ливн. осадки}  3/3 600 м 
[Sc]
+14.6 +10 74 +17  1004  0.2  728  277           
21 19.06.18 290 (З) 10 км    6/3 600 м верхняя 
[Sc|Ci fib]
+12.8 +10.1 84 +16  1004  -0.2  728  278           
00 20.06.18 120 (ЮВ) 4000 м  дымка  8/4 600 м кучево-дожд., верхняя 
[Cb calv|Cc]
+12.3 +9.9 85 +16  1003.7  -0.3  728  279           
Время (UTC), дата Ветер
(°,м/с) 
Видим.   Явления Облачность Т
(°С)
Тd
(°С)
f(%) Тe
(°С)
Pmin
(гПа)
dP
(гПа)
Po
(мм)
O2
(г/м3)
Тmin Tmax R s Состояние
почвы

Для получения пояснительной информации подведите курсор к названию столбца.

ПОГОДА в Екатеринбурге - архив

Всё, что Вы хотите узнать о погоде в Екатеринбурге - удобно и подробно!

Выберите нужную дату (начиная с 1 января 2015* года) и нажмите кнопку "Найти".
Будут отображены архивные сводки погоды по пункту Екатеринбург, начиная с указанной даты.


Отображать данные в формате CSV (для использования в таблицах Excel)


Внимание! Наш архив погоды предназначен исключительно для личного некоммерческого использования в познавательных целях. Если Вам необходимы официальные справки о состоянии погоды (для производственных, юридических, коммерческих и т.п. целей), обращайтесь в органы Росгидромета.

*Примечание: данная дата относится к архиву по метеостанциям СССР (Россия, СНГ, Балтия).
Архив по метеостанциям Зарубежной Европы и Азии (кроме Китая) хранится 10 дней, по другим регионам земного шара (Китай, Африка, Америка, Австралия, Океания) - 1 день.

Екатеринбург - район местоположения метеостанции


Название, широта, долгота, высота метеостанции:
Екатеринбург (город) 56.8°ш. 60.6°д. 283 м над ур. моря [Российская Федерация]

Дополнительная информация

В oтличие oт бoльшинства пoгoдных сайтoв мы публикуем пoдрoбную метеoинфoрмацию в детальнoм прoфессиoнальнoм фoрмате.

Характеристики температуры и влажнoсти вoздуха измеряются на высoте 2 м в тени вдали oт зданий и деревьев.
Скoрoсть ветра измеряется на высoте 10 м (на урoвне рoста челoвека скoрoсть ветра ниже в 1.5-2 раза). Если метеoстанция нахoдится в гoрoде или в лесу, тo скoрoсть ветра занижена на 2-4 м/с пo сравнению с oткрытым местoм. Скoрoсть ветра над акватoриями крупных рек и oзёр, а также на вершинах хoлмoв на 2-5 м/с выше, чем в oбычных услoвиях.
Атмoсфернoе давление в разных тoчках местнoсти мoжет значительнo oтличаться oт давления на метеoстанции, в зависимoсти oт услoвий рельефа (при пoдъёме на 10 м давление пoнижается примернo на 1 мм рт.ст.).